TimeEDT,TemperatureF,Dew PointF,Humidity,Sea Level PressureIn,VisibilityMPH,Wind Direction,Wind SpeedMPH,Gust SpeedMPH,PrecipitationIn,Events,Conditions,WindDirDegrees,DateUTC
12:00 AM,50.0,46.4,87,29.96,15.0,NNE,9.2,-,N/A,,Mostly Cloudy,30,2012-09-30 04:00:00
1:00 AM,50.0,48.2,94,29.95,15.0,NE,10.4,-,N/A,,Overcast,40,2012-09-30 05:00:00
2:00 AM,51,48,84,29.95,10,NE,10.4,,,Rain,Light Rain Showers,40,2012-09-30 06:00:00
2:00 AM,50.0,48.2,94,29.95,10.0,NE,10.4,-,N/A,Rain,Light Rain Showers,40,2012-09-30 06:00:00
3:00 AM,50.0,48.2,94,29.95,6.0,NE,10.4,-,N/A,Rain,Light Rain Showers,50,2012-09-30 07:00:00
4:00 AM,50.0,48.2,94,29.94,6.0,NE,5.8,-,N/A,Rain,Light Rain Showers,50,2012-09-30 08:00:00
5:00 AM,50.0,48.2,94,29.94,10.0,NNE,4.6,-,N/A,Rain,Light Rain Showers,30,2012-09-30 09:00:00
6:00 AM,50.0,48.2,94,29.94,7.0,NNE,6.9,-,N/A,Rain,Light Rain Showers,20,2012-09-30 10:00:00
7:00 AM,50.0,48.2,94,29.94,12.0,NE,6.9,-,N/A,Rain,Light Rain Showers,40,2012-09-30 11:00:00
8:00 AM,49,48,95,29.95,12,NE,6.9,,,Rain,Light Rain Showers,40,2012-09-30 12:00:00
8:00 AM,48.2,48.2,100,29.94,12.0,NNE,6.9,-,N/A,Rain,Light Rain Showers,30,2012-09-30 12:00:00
8:33 AM,50.0,48.2,94,29.94,15.0,NNE,8.1,-,N/A,,Mostly Cloudy,30,2012-09-30 12:33:00
8:45 AM,50.0,50.0,100,29.95,15.0,NNE,9.2,-,N/A,,Mostly Cloudy,30,2012-09-30 12:45:00
9:00 AM,50.0,48.2,94,29.95,15.0,NNE,11.5,-,N/A,,Mostly Cloudy,30,2012-09-30 13:00:00
10:00 AM,53.6,50.0,88,29.95,15.0,North,9.2,-,N/A,,Mostly Cloudy,360,2012-09-30 14:00:00
10:12 AM,53.6,48.2,82,29.95,15.0,NNE,9.2,-,N/A,,Mostly Cloudy,30,2012-09-30 14:12:00
11:00 AM,53.6,48.2,82,29.95,15.0,NNE,9.2,-,N/A,,Mostly Cloudy,20,2012-09-30 15:00:00
12:00 PM,55.4,48.2,77,29.94,15.0,NNW,8.1,-,N/A,,Mostly Cloudy,330,2012-09-30 16:00:00
1:00 PM,59.0,48.2,67,29.94,15.0,NNW,6.9,-,N/A,,Mostly Cloudy,330,2012-09-30 17:00:00
2:00 PM,61,45,45,29.92,15,NNE,8.1,,,,Partly Cloudy,30,2012-09-30 18:00:00
2:00 PM,60.8,44.6,55,29.92,15.0,NNE,8.1,-,N/A,,Mostly Cloudy,30,2012-09-30 18:00:00
3:00 PM,62.6,48.2,59,29.90,15.0,NNE,3.5,-,N/A,,Mostly Cloudy,30,2012-09-30 19:00:00
4:00 PM,62.6,42.8,48,29.89,15.0,West,6.9,-,N/A,,Mostly Cloudy,270,2012-09-30 20:00:00
5:00 PM,59.0,42.8,55,29.89,15.0,NW,4.6,-,N/A,,Mostly Cloudy,310,2012-09-30 21:00:00
6:00 PM,59.0,44.6,59,29.89,15.0,West,4.6,-,N/A,,Mostly Cloudy,270,2012-09-30 22:00:00
7:00 PM,55.4,42.8,63,29.89,15.0,NW,5.8,-,N/A,,Scattered Clouds,310,2012-09-30 23:00:00
8:00 PM,52,42,60,29.91,15,NNW,4.6,,,,Scattered Clouds,330,2012-10-01 00:00:00
8:00 PM,51.8,42.8,71,29.91,15.0,NNE,4.6,-,N/A,,Scattered Clouds,20,2012-10-01 00:00:00
9:00 PM,51.8,41.0,67,29.90,15.0,NW,5.8,-,N/A,,Mostly Cloudy,320,2012-10-01 01:00:00
10:00 PM,51.8,42.8,71,29.91,15.0,NNW,8.1,-,N/A,,Mostly Cloudy,340,2012-10-01 02:00:00
11:00 PM,53.6,42.8,67,29.92,15.0,NW,6.9,-,N/A,,Mostly Cloudy,310,2012-10-01 03:00:00